Tracking 35275 objects as of 8-Sep-2026
HD Live streaming from Space Station
objects crossing your sky now

COSMOS 2088

Track COSMOS 2088 now!
10-day predictions
COSMOS 2088 is classified as:


NORAD ID: 20720
Int'l Code: 1990-066A
Launch date: July 30, 1990
Source: Commonwealth of Independent States (former USSR) (CIS)
Launch site: PLESETSK MISSILE AND SPACE COMPLEX (PKMTR)
Your satellite tracking list
Your tracking list is empty




NASA's NSSDC Master Catalog

Two Line Element Set (TLE):
1 20720U 90066A   26250.52596910  .00000009  00000-0  19554-3 0  9990
2 20720  73.5966 280.4369 0024807 144.3432 327.3889 12.40784519635367
Source of the keplerian elements: AFSPC